Regional Weather Roundup
Issued by NWS

Home | Current Version | Previous Version | Text Only | Print | Product List | Glossary On
Versions: 1 2 3 4 5 6 7 8 9 10 11 12 13 14 15 16 17 18 19 20 21 22 23 24 25 26 27 28 29 30 31 32 33 34 35 36 37 38 39 40 41 42 43 44 45 46 47 48 49 50
000
ASCA44 KEWX 191120
RWRMX

LATIN AMERICA AND CARIBBEAN REGIONAL WEATHER ROUNDUP
NATIONAL WEATHER SERVICE AUSTIN/SAN ANTONIO TX
600 AM CDT SUN APR 19 2015

NOTE: "FAIR" INDICATED FEW OR NO CLOUDS BELOW 12,000 FEET WITH NO
SIGNIFICANT WEATHER AND/OR OBSTRUCTIONS TO VISIBILITY.

BAJA CALIFORNIA

CITY           SKY/WX    TMP DP  RH WIND       PRES   REMARKS
TIJUANA        CLEAR     54  50  87 CALM      29.96F

NORTHWESTERN MEXICO

CITY           SKY/WX    TMP DP  RH WIND       PRES   REMARKS
HERMOSILLO     PTCLDY    63  34  34 CALM      29.90

NORTHEASTERN MEXICO

CITY           SKY/WX    TMP DP  RH WIND       PRES   REMARKS
CHIHUAHUA      PTCLDY    43  21  42 S12       30.05  WCI  37
MONTERREY      FOG       64  63  94 NW7       29.78S VSB 1
REYNOSA        MOCLDY    70  68  94 CALM      29.76
TORREON        CLEAR     64  41  42 CALM      29.95R
CD. VICTORIA   CLEAR     68  68 100 NW2       29.78

WESTERN MEXICO

CITY           SKY/WX    TMP DP  RH WIND       PRES   REMARKS
AGUASCALIENTES CLEAR     52  41  66 SE6       30.14
COLIMA         CLEAR     68  66  94 CALM      29.95
DEL BAJIO      PTCLDY    55  46  71 CALM      30.19
GUADALAJARA    CLEAR     55  46  71 CALM      30.09
MAZATLAN       PTCLDY    61  57  88 N9        29.84S
P. VALLARTA    PTCLDY    72  70  94 NE2       29.85R

CENTRAL MEXICO

CITY           SKY/WX    TMP DP  RH WIND       PRES   REMARKS
MEXICO CITY    CLEAR     61  39  44 NE3       30.22R
MORELIA        CLEAR     52  43  71 CALM      30.14
PUEBLA         PTCLDY    52  43  71 CALM      30.24
QUERETARO      PTCLDY    55  43  62 NW5       30.19R
S. LUIS POTOSI CLEAR     50  46  87 CALM      30.10S
TAMPICO        PTCLDY    75  73  94 CALM      29.76  FOG
TOLUCA         PTCLDY    45  36  70 CALM      30.30R

SOUTHERN MEXICO

CITY           SKY/WX    TMP DP  RH WIND       PRES   REMARKS
ACAPULCO       PTCLDY    73  72  94 CALM      29.83S
OAXACA         PTCLDY    59  54  82 CALM      30.14
VERACRUZ       MOCLDY    75  73  94 CALM      29.76  HAZE

YUCATAN PENINSULA

CITY           SKY/WX    TMP DP  RH WIND       PRES   REMARKS
CAMPECHE       CLEAR     79  73  83 SE12G23   29.76R
CANCUN         PTCLDY    79  72  78 SE10      29.87S
CD. DEL CARMEN CLOUDY    82  72  69 E17       29.77
COZUMEL        PTCLDY    75  72  88 SE6       29.88R
MERIDA         PTCLDY    77  73  88 SE12      29.82R
TAPACHULA      MOCLDY    79  75  89 CALM      29.84S
TUX. GUTIERREZ PTCLDY    70  64  83 W5        29.88
VILLAHERMOSA   PTCLDY    81  77  89 CALM      29.79

CENTRAL AMERICA

CITY           SKY/WX    TMP DP  RH WIND       PRES   REMARKS
BELIZE CITY    PTCLDY    81  77  89 E12       29.81
MANAGUA        MOSUNNY   77  72  83 SE5       29.86R

CARIBBEAN

CITY           SKY/WX    TMP DP  RH WIND       PRES   REMARKS
ARUBA          PTCLDY    81  75  83 E20       29.86S
CURACAO        PTCLDY    81  75  83 E14       29.92S
KINGSTON       PTCLDY    79  70  73 N5        29.94R
SAN JUAN       MOSUNNY   77  73  88 CALM      30.02R
SANTO DOMINGO  PTCLDY    72  68  88 E5        29.97S
ST. KITTS      MOSUNNY   79  72  78 E13       30.03R
ST. MAARTEN    MOSUNNY   79  72  78 E9        30.03R

$$




USA.gov is the U.S. government's official web portal to all federal, state and local government web resources and services.